Time,TemperatureF,DewpointF,PressureIn,WindDirection,WindDirectionDegrees,WindSpeedMPH,WindSpeedGustMPH,Humidity,HourlyPrecipIn,Conditions,Clouds,dailyrainin,SoftwareType,DateUTC
2013-09-04 00:06:00,70.3,70.0,29.99,ESE,120,0.0,1.0,99,0.00,,,0.00,weatherlink.com 1.10,2013-09-04 05:06:00,
2013-09-04 00:21:00,70.5,70.0,29.99,ESE,120,0.0,0.0,99,0.00,,,0.00,weatherlink.com 1.10,2013-09-04 05:21:00,
2013-09-04 00:36:00,70.6,70.0,29.98,ESE,120,0.0,0.0,99,0.00,,,0.00,weatherlink.com 1.10,2013-09-04 05:36:00,
2013-09-04 00:51:00,70.3,70.0,29.98,SSE,150,0.0,1.0,99,0.00,,,0.00,weatherlink.com 1.10,2013-09-04 05:51:00,
2013-09-04 01:06:00,70.2,70.0,29.98,SSE,150,0.0,1.0,99,0.00,,,0.00,weatherlink.com 1.10,2013-09-04 06:06:00,
2013-09-04 01:21:00,70.0,70.0,29.97,SSE,150,0.0,0.0,99,0.01,,,0.01,weatherlink.com 1.10,2013-09-04 06:21:00,
2013-09-04 01:36:00,69.9,70.0,29.97,SSE,152,0.0,0.0,99,0.01,,,0.01,weatherlink.com 1.10,2013-09-04 06:36:00,
2013-09-04 01:51:00,69.7,69.0,29.97,SSE,151,0.0,0.0,99,0.01,,,0.01,weatherlink.com 1.10,2013-09-04 06:51:00,
2013-09-04 02:06:00,69.5,69.0,29.97,SSE,151,0.0,0.0,99,0.01,,,0.01,weatherlink.com 1.10,2013-09-04 07:06:00,
2013-09-04 02:21:00,69.5,69.0,29.97,SSE,150,0.0,0.0,99,0.00,,,0.01,weatherlink.com 1.10,2013-09-04 07:21:00,
2013-09-04 02:36:00,69.3,69.0,29.97,SE,143,0.0,0.0,99,0.00,,,0.01,weatherlink.com 1.10,2013-09-04 07:36:00,
2013-09-04 02:51:00,69.2,69.0,29.97,SE,143,0.0,0.0,99,0.00,,,0.01,weatherlink.com 1.10,2013-09-04 07:51:00,
2013-09-04 03:06:00,69.2,69.0,29.97,SE,143,0.0,0.0,99,0.00,,,0.01,weatherlink.com 1.10,2013-09-04 08:06:00,
2013-09-04 03:21:00,69.1,69.0,29.97,SE,143,0.0,0.0,99,0.00,,,0.01,weatherlink.com 1.10,2013-09-04 08:21:00,
2013-09-04 03:36:00,69.0,69.0,29.97,SE,143,0.0,0.0,99,0.00,,,0.01,weatherlink.com 1.10,2013-09-04 08:36:00,
2013-09-04 03:51:00,69.0,69.0,29.97,SE,143,0.0,0.0,99,0.00,,,0.01,weatherlink.com 1.10,2013-09-04 08:51:00,
2013-09-04 04:06:00,68.9,69.0,29.97,SE,143,0.0,0.0,99,0.00,,,0.01,weatherlink.com 1.10,2013-09-04 09:06:00,
2013-09-04 04:21:00,68.9,69.0,29.98,SE,143,0.0,0.0,99,0.00,,,0.01,weatherlink.com 1.10,2013-09-04 09:21:00,
2013-09-04 04:36:00,68.8,69.0,29.98,SE,143,0.0,0.0,99,0.00,,,0.01,weatherlink.com 1.10,2013-09-04 09:36:00,
2013-09-04 04:51:00,68.6,68.0,29.97,SE,146,0.0,0.0,99,0.00,,,0.01,weatherlink.com 1.10,2013-09-04 09:51:00,
2013-09-04 05:06:00,68.5,68.0,29.98,SE,146,0.0,0.0,99,0.00,,,0.01,weatherlink.com 1.10,2013-09-04 10:06:00,
2013-09-04 05:21:00,68.6,69.0,29.98,SE,143,0.0,0.0,100,0.00,,,0.01,weatherlink.com 1.10,2013-09-04 10:21:00,
2013-09-04 05:36:00,68.2,68.0,29.98,SE,134,0.0,0.0,99,0.00,,,0.01,weatherlink.com 1.10,2013-09-04 10:36:00,
2013-09-04 05:51:00,68.1,68.0,29.99,SE,134,0.0,1.0,99,0.00,,,0.01,weatherlink.com 1.10,2013-09-04 10:51:00,
2013-09-04 06:06:00,68.0,68.0,30.00,SE,134,0.0,0.0,99,0.00,,,0.01,weatherlink.com 1.10,2013-09-04 11:06:00,
2013-09-04 06:21:00,67.9,68.0,30.00,SE,134,0.0,0.0,99,0.00,,,0.01,weatherlink.com 1.10,2013-09-04 11:21:00,
2013-09-04 06:36:00,67.9,68.0,30.01,SE,134,0.0,0.0,100,0.00,,,0.01,weatherlink.com 1.10,2013-09-04 11:36:00,
2013-09-04 06:51:00,68.1,68.0,30.02,SE,134,0.0,0.0,100,0.00,,,0.01,weatherlink.com 1.10,2013-09-04 11:51:00,
2013-09-04 07:06:00,69.1,69.0,30.02,SE,134,0.0,0.0,100,0.00,,,0.01,weatherlink.com 1.10,2013-09-04 12:06:00,
2013-09-04 07:21:00,70.1,70.0,30.02,SE,134,0.0,0.0,100,0.00,,,0.01,weatherlink.com 1.10,2013-09-04 12:21:00,
2013-09-04 07:36:00,72.0,72.0,30.03,SE,134,0.0,0.0,100,0.00,,,0.01,weatherlink.com 1.10,2013-09-04 12:36:00,
2013-09-04 07:51:00,73.1,73.0,30.04,SE,134,0.0,0.0,99,0.00,,,0.01,weatherlink.com 1.10,2013-09-04 12:51:00,
2013-09-04 08:06:00,73.2,72.0,30.04,WNW,282,1.0,1.0,95,0.00,,,0.01,weatherlink.com 1.10,2013-09-04 13:06:00,
2013-09-04 08:21:00,75.4,74.0,30.05,West,274,0.0,1.0,95,0.00,,,0.01,weatherlink.com 1.10,2013-09-04 13:21:00,
2013-09-04 08:36:00,76.7,74.0,30.05,NW,309,0.0,1.0,90,0.00,,,0.01,weatherlink.com 1.10,2013-09-04 13:36:00,
2013-09-04 08:51:00,78.8,74.0,30.05,SW,233,0.0,2.0,86,0.00,,,0.01,weatherlink.com 1.10,2013-09-04 13:51:00,
2013-09-04 09:07:00,79.5,75.0,30.06,WNW,290,0.0,3.0,85,0.00,,,0.01,weatherlink.com 1.10,2013-09-04 14:07:00,
2013-09-04 09:22:00,81.2,75.0,30.06,West,269,0.0,2.0,80,0.00,,,0.01,weatherlink.com 1.10,2013-09-04 14:22:00,
2013-09-04 09:37:00,82.5,75.0,30.07,SSW,195,0.0,2.0,78,0.00,,,0.01,weatherlink.com 1.10,2013-09-04 14:37:00,
2013-09-04 09:52:00,82.5,75.0,30.07,East,96,0.0,3.0,77,0.00,,,0.01,weatherlink.com 1.10,2013-09-04 14:52:00,
2013-09-04 10:07:00,82.4,75.0,30.07,West,278,1.0,4.0,77,0.00,,,0.01,weatherlink.com 1.10,2013-09-04 15:07:00,
2013-09-04 10:22:00,83.0,75.0,30.07,SW,226,0.0,3.0,76,0.00,,,0.01,weatherlink.com 1.10,2013-09-04 15:22:00,
2013-09-04 10:37:00,84.6,76.0,30.07,WSW,248,1.0,5.0,75,0.00,,,0.01,weatherlink.com 1.10,2013-09-04 15:37:00,
2013-09-04 10:52:00,84.9,75.0,30.07,WSW,239,2.0,3.0,72,0.00,,,0.01,weatherlink.com 1.10,2013-09-04 15:52:00,
2013-09-04 11:07:00,85.3,76.0,30.07,WNW,295,0.0,4.0,73,0.00,,,0.01,weatherlink.com 1.10,2013-09-04 16:07:00,
2013-09-04 11:22:00,85.3,75.0,30.07,WSW,255,0.0,4.0,70,0.00,,,0.01,weatherlink.com 1.10,2013-09-04 16:22:00,
2013-09-04 11:37:00,86.4,76.0,30.07,WNW,293,2.0,3.0,72,0.00,,,0.01,weatherlink.com 1.10,2013-09-04 16:37:00,
2013-09-04 11:52:00,87.5,75.0,30.07,West,276,1.0,3.0,67,0.00,,,0.01,weatherlink.com 1.10,2013-09-04 16:52:00,
2013-09-04 12:07:00,87.7,76.0,30.06,WSW,238,2.0,4.0,68,0.00,,,0.01,weatherlink.com 1.10,2013-09-04 17:07:00,
2013-09-04 12:22:00,88.0,76.0,30.06,WSW,242,2.0,4.0,68,0.00,,,0.01,weatherlink.com 1.10,2013-09-04 17:22:00,
2013-09-04 12:37:00,87.6,76.0,30.05,SSE,167,0.0,3.0,69,0.00,,,0.01,weatherlink.com 1.10,2013-09-04 17:37:00,
2013-09-04 12:52:00,88.4,77.0,30.05,WSW,248,1.0,5.0,68,0.00,,,0.01,weatherlink.com 1.10,2013-09-04 17:52:00,
2013-09-04 13:07:00,88.3,76.0,30.05,SSE,166,0.0,1.0,68,0.00,,,0.01,weatherlink.com 1.10,2013-09-04 18:07:00,
2013-09-04 13:22:00,89.5,78.0,30.05,West,264,2.0,3.0,68,0.00,,,0.01,weatherlink.com 1.10,2013-09-04 18:22:00,
2013-09-04 13:37:00,89.0,78.0,30.04,SSW,212,3.0,5.0,71,0.00,,,0.01,weatherlink.com 1.10,2013-09-04 18:37:00,
2013-09-04 13:52:00,89.9,77.0,30.04,SW,217,0.0,3.0,65,0.00,,,0.01,weatherlink.com 1.10,2013-09-04 18:52:00,
2013-09-04 14:07:00,91.3,74.0,30.03,ESE,102,1.0,3.0,58,0.00,,,0.01,weatherlink.com 1.10,2013-09-04 19:07:00,
2013-09-04 14:22:00,91.9,77.0,30.03,NW,326,1.0,3.0,61,0.00,,,0.01,weatherlink.com 1.10,2013-09-04 19:22:00,
2013-09-04 14:37:00,90.9,76.0,30.02,East,79,2.0,3.0,62,0.00,,,0.01,weatherlink.com 1.10,2013-09-04 19:37:00,
2013-09-04 14:52:00,91.3,78.0,30.01,South,183,0.0,2.0,65,0.00,,,0.01,weatherlink.com 1.10,2013-09-04 19:52:00,
2013-09-04 15:07:00,91.4,77.0,30.01,SW,222,3.0,3.0,63,0.00,,,0.01,weatherlink.com 1.10,2013-09-04 20:07:00,
2013-09-04 15:22:00,92.4,77.0,30.00,ESE,123,0.0,2.0,61,0.00,,,0.01,weatherlink.com 1.10,2013-09-04 20:22:00,
2013-09-04 15:37:00,92.3,76.0,30.00,NW,325,0.0,2.0,59,0.00,,,0.01,weatherlink.com 1.10,2013-09-04 20:37:00,
2013-09-04 15:52:00,91.4,75.0,29.99,WNW,293,1.0,3.0,58,0.00,,,0.01,weatherlink.com 1.10,2013-09-04 20:52:00,
2013-09-04 16:07:00,91.3,76.0,29.99,WNW,295,1.0,2.0,61,0.00,,,0.01,weatherlink.com 1.10,2013-09-04 21:07:00,
2013-09-04 16:22:00,92.2,76.0,29.99,ESE,112,1.0,2.0,60,0.00,,,0.01,weatherlink.com 1.10,2013-09-04 21:22:00,
2013-09-04 16:37:00,93.6,78.0,29.98,South,184,0.0,2.0,61,0.00,,,0.01,weatherlink.com 1.10,2013-09-04 21:37:00,
2013-09-04 16:52:00,92.2,75.0,29.98,SE,139,0.0,3.0,58,0.00,,,0.01,weatherlink.com 1.10,2013-09-04 21:52:00,
2013-09-04 17:07:00,92.3,76.0,29.99,SE,137,0.0,1.0,59,0.00,,,0.01,weatherlink.com 1.10,2013-09-04 22:07:00,
2013-09-04 17:22:00,92.8,77.0,29.99,SE,143,0.0,0.0,60,0.00,,,0.01,weatherlink.com 1.10,2013-09-04 22:22:00,
2013-09-04 17:37:00,92.2,78.0,30.00,SE,143,0.0,0.0,63,0.00,,,0.01,weatherlink.com 1.10,2013-09-04 22:37:00,
2013-09-04 17:52:00,92.0,77.0,30.00,SE,144,0.0,1.0,61,0.00,,,0.01,weatherlink.com 1.10,2013-09-04 22:52:00,
2013-09-04 18:07:00,87.7,76.0,30.02,WNW,293,2.0,5.0,69,0.00,,,0.01,weatherlink.com 1.10,2013-09-04 23:07:00,
2013-09-04 18:22:00,82.8,75.0,30.02,WNW,297,1.0,6.0,77,0.00,,,0.01,weatherlink.com 1.10,2013-09-04 23:22:00,
2013-09-04 18:37:00,81.6,75.0,30.01,WNW,293,1.0,2.0,81,0.00,,,0.01,weatherlink.com 1.10,2013-09-04 23:37:00,
2013-09-04 18:52:00,80.2,75.0,30.00,SE,134,0.0,1.0,84,0.00,,,0.01,weatherlink.com 1.10,2013-09-04 23:52:00,
2013-09-04 19:07:00,79.4,75.0,30.03,ESE,115,0.0,4.0,87,0.00,,,0.01,weatherlink.com 1.10,2013-09-05 00:07:00,
2013-09-04 19:22:00,79.3,75.0,30.05,West,260,2.0,2.0,87,0.00,,,0.01,weatherlink.com 1.10,2013-09-05 00:22:00,
2013-09-04 19:37:00,78.1,74.0,30.06,South,184,1.0,9.0,86,0.00,,,0.01,weatherlink.com 1.10,2013-09-05 00:37:00,
2013-09-04 19:52:00,77.3,74.0,30.06,SE,132,0.0,4.0,90,0.00,,,0.01,weatherlink.com 1.10,2013-09-05 00:52:00,
2013-09-04 20:08:00,76.9,74.0,30.06,WSW,242,1.0,2.0,90,0.00,,,0.01,weatherlink.com 1.10,2013-09-05 01:08:00,
2013-09-04 20:23:00,76.2,74.0,30.06,WSW,255,0.0,1.0,92,0.00,,,0.01,weatherlink.com 1.10,2013-09-05 01:23:00,
2013-09-04 20:38:00,75.7,73.0,30.07,WNW,285,0.0,1.0,92,0.00,,,0.01,weatherlink.com 1.10,2013-09-05 01:38:00,
2013-09-04 20:53:00,75.1,72.0,30.06,WNW,290,0.0,2.0,91,0.00,,,0.01,weatherlink.com 1.10,2013-09-05 01:53:00,
2013-09-04 21:08:00,74.4,72.0,30.07,WNW,295,0.0,1.0,92,0.00,,,0.01,weatherlink.com 1.10,2013-09-05 02:08:00,
2013-09-04 21:23:00,74.0,72.0,30.07,WNW,297,0.0,1.0,92,0.00,,,0.01,weatherlink.com 1.10,2013-09-05 02:23:00,
2013-09-04 21:38:00,74.1,72.0,30.07,SW,219,1.0,2.0,92,0.00,,,0.01,weatherlink.com 1.10,2013-09-05 02:38:00,
2013-09-04 21:53:00,74.1,72.0,30.07,NW,312,0.0,1.0,93,0.00,,,0.01,weatherlink.com 1.10,2013-09-05 02:53:00,
2013-09-04 22:08:00,73.9,72.0,30.08,NW,312,0.0,0.0,93,0.00,,,0.01,weatherlink.com 1.10,2013-09-05 03:08:00,
2013-09-04 22:23:00,73.7,72.0,30.08,NW,312,0.0,0.0,94,0.00,,,0.01,weatherlink.com 1.10,2013-09-05 03:23:00,
2013-09-04 22:38:00,73.8,72.0,30.08,NW,314,0.0,1.0,94,0.00,,,0.01,weatherlink.com 1.10,2013-09-05 03:38:00,
2013-09-04 22:53:00,74.0,73.0,30.08,NW,314,0.0,1.0,95,0.00,,,0.01,weatherlink.com 1.10,2013-09-05 03:53:00,
2013-09-04 23:08:00,73.8,72.0,30.08,NW,314,0.0,0.0,95,0.00,,,0.01,weatherlink.com 1.10,2013-09-05 04:08:00,
2013-09-04 23:23:00,73.5,72.0,30.08,ESE,105,0.0,1.0,95,0.00,,,0.01,weatherlink.com 1.10,2013-09-05 04:23:00,
2013-09-04 23:38:00,73.3,72.0,30.07,ESE,108,0.0,0.0,96,0.00,,,0.01,weatherlink.com 1.10,2013-09-05 04:38:00,
2013-09-04 23:53:00,73.2,72.0,30.07,ESE,108,0.0,1.0,96,0.00,,,0.01,weatherlink.com 1.10,2013-09-05 04:53:00,